sat.trackr.live / text

‹ back to catalog

INTELSAT 11 (IS-11)

NORAD 32253 · 2007-044B

PAYLOAD ACTIVE UNKNOWN

§ Identity

Operator
Country
ITSO
Launch date
2007-10-05
Launch site
FRGUI
Launch vehicle
Mass (kg)
RCS (m²)
23.79

Purposes: comms

External: N2YO · Heavens-Above · Gunter

§ Orbital elements

Epoch: 2026-09-14T21:04:46.894656Z

Period
1,453.86 min
Inclination
3.7927°
Eccentricity
0.0007355
Mean motion
0.99046923 rev/d
Perigee alt
36,102.2 km
Apogee alt
36,164.8 km
Semi-major
42,511.6 km
B*
0.0000e+0
RAAN
77.5123°
Arg perigee
127.8777°
Mean anomaly
195.9052°
Rev number
6,933

§ Raw data

INTELSAT 11 (IS-11)1 32253U 07044B   26257.87832054 -.00000029  00000+0  00000+0 0  99992 32253   3.7927  77.5123 0007355 127.8777 195.9052  0.99046923 69333

JSON: /api/v1/satellites/32253 · /tle

For live sub-satellite position, see the globe view (requires WebGL).

§ Visibility from observer

Set your observer location to see the next 7 days of passes ≥ 10°. The values pass through the URL so the page stays shareable.

No JS? Fill the form by hand. The geolocation button needs JavaScript.